Orbital elements:
2006 NM                                                  Earth MOID = 0.0934 AU
Epoch 2007 Oct. 27.0 TT = JDT 2454400.5                 MPC
M  90.54255              (2000.0)            P               Q
n   0.21210689     Peri.   29.97415     +0.78081135     +0.58230830
a   2.7846216      Node   292.67180     -0.61082997     +0.63540520
e   0.6151993      Incl.   14.20219     -0.13122642     +0.50712648
P   4.65           H   16.3           G   0.15           U   2
Residuals in seconds of arc
060703 E12  0.0   0.0     060909 J68  0.3+  0.1+    061011 A48  0.8+  0.6+
060703 E12  0.1+  0.1-    060909 J68  0.4+  0.2+    061011 A48  0.8+  0.1-
060703 E12  0.2+  0.2+    060909 H67  0.4-  0.4-    061012 379  0.3-  0.4+
060703 E12  0.0   0.0     060909 H98  0.1-  0.3-    061012 379  0.2+  0.1-
060703 E12  0.1+  0.2+    060909 H67  0.4+  0.4+    061012 379  0.2-  0.3-
060703 E12  0.4-  0.1-    060909 H98  0.3-  0.4-    061012 379  0.3+  0.1-
060703 E12  0.2+  0.0     060909 H98  0.5-  0.1-    061012 379  0.5-  0.2-
060703 E12  0.2-  0.1-    060909 H67  0.1-  0.1+    061012 198  0.1-  0.1+
060703 E12  0.1-  0.5+    060909 H67  0.1+  0.1+    061012 198  0.0   0.0
060703 E12  0.1+  0.1-    060909 H67  0.2+  0.3+    061012 198  0.1-  0.2+
060703 I77  0.4-  0.5+    060909 113  0.2+  0.3-    061012 198  0.1-  0.1+
060703 I77  0.2-  0.2-    060909 113  0.1-  0.2-    061012 198  0.2-  0.0
060703 I77  0.2+  0.3-    060909 113  0.0   0.0     061012 084  0.5+  0.2+
060704 E12  0.1+  0.0     060909 113  0.1+  0.1-    061013 J94  0.4-  0.0
060704 E12  0.3-  0.1+    060909 113  0.1-  0.2-    061013 A24  0.1-  0.3+
060704 E12  0.3-  0.1+    060909 A89  0.1+  0.4-    061013 940  0.0   0.3+
060704 E12  0.1-  0.2-    060909 A89  0.1+  0.6-    061013 J94  0.2+  0.6-
060704 423  0.3-  0.0     060909 A89  0.3+  0.3-    061013 J94  0.1+  0.0
060704 423  0.1-  0.1-    060909 J68  0.2+  0.3-    061013 940  0.2-  0.0
060704 423  0.1-  0.0     060909 J68  0.3-  0.2-    061013 940  0.2-  0.2+
060704 423  0.1-  0.3-    060910 J68  0.1+  0.0     061013 A24  0.0   0.0
060704 423  0.3-  0.0     060910 H45  0.1-  0.2-    061013 A24  0.3-  0.2+
060704 E12  0.1+  0.0     060910 H45  0.2-  0.2-    061013 A24  0.0   0.2+
060704 E12  0.3-  0.2-    060910 H45  0.1-  0.2-    061015 113  0.6-  0.5+
060704 E12  0.3-  0.1-    060910 H45  0.2-  0.2-    061015 113  0.1+  0.2-
060704 E12  0.4-  0.3+    060910 H45  0.1-  0.2-    061015 113  0.1-  0.3-
060705 673  0.5+  0.2+    060910 H45  0.2-  0.2-    061015 113  0.0   0.1-
060705 673  0.4+  0.3+    060910 H45  0.1-  0.3-    061015 113  0.1-  0.1-
060705 673  0.2+  0.3+    060910 240  0.0   0.4-    061015 A24  0.2-  0.3+
060705 673  0.1+  0.1-    060910 240  0.1+  0.2-    061015 A24  0.0   0.0
060705 423  0.1-  0.4-    060910 240  0.0   0.3-    061015 A24  0.3+  0.1+
060705 423  0.0   0.2-    060910 240  0.1-  0.1-    061015 A24  0.0   0.4+
060705 423  0.1+  0.2-    060910 240  0.1+  0.0     061015 A24  0.6+  1.3-
060705 423  0.0   0.1-    060910 240  0.1+  0.1-    061015 A24  0.1-  0.2+
060705 E12  0.0   0.1-    060910 240  0.1-  0.1-    061015 B09  2.6-  1.0+
060705 E12  0.1+  0.0     060910 240  0.1-  0.2-    061015 B09 (3.4-  1.0+)
060705 E12  0.3-  0.2-    060910 240  0.1+  0.1-    061015 B09(16.4+ 17.6-)
060705 E12  0.3-  0.1-    060910 240  0.0   0.1-    061016 379  0.0   0.1+
060705 I77  0.1-  0.3-    060910 240  0.2+  0.1-    061016 379  0.0   0.1-
060705 I77  0.0   0.3-    060910 240  0.1+  0.2-    061016 379  0.2+  0.2-
060705 I77  0.2+  0.3-    060910 240  0.0   0.0     061016 379  0.1-  0.1+
060706 H36  0.2+  2.0-    060910 240  0.1+  0.1-    061016 379  0.4-  0.3-
060706 H36  1.0-  0.3-    060910 240  0.1+  0.1-    061016 379  0.4-  0.3-
060706 423  0.4-  0.0     060910 084  0.0   0.5-    061016 379  0.1-  0.2-
060706 423  0.0   0.0     060910 084  0.2+  0.1-    061016 379  0.4-  0.1-
060706 423  0.3-  0.1-    060910 A48  1.0+  0.7+    061016 113  0.0   0.1-
060706 423  0.3+  0.0     060910 A48  0.7+  0.7+    061016 113  0.1+  0.2-
060706 423  0.1-  0.1-    060910 A48  1.1+  0.8+    061016 113  0.0   0.2-
060706 E12  0.1-  0.2+    060910 A48  0.7+  0.8+    061016 113  0.1+  0.2-
060706 E12  0.0   0.1+    060910 A06  0.6-  0.4-    061016 113  0.1+  0.1-
060706 E12  0.5-  0.6-    060910 A06  0.4+  0.2+    061016 A27  0.1-  0.0
060706 E12  0.0   0.3-    060910 A06  0.1-  0.1+    061016 A27  0.2+  0.3-
060706 E26  0.1-  0.2-    060910 J68  0.2+  0.0     061016 A27  0.0   0.1+
060706 E26  0.0   0.1-    060910 J68  0.0   0.1+    061016 A27  0.3-  0.4+
060706 E12  0.2+  0.5+    060911 J68  1.6+  0.6+    061016 A27  0.1+  0.1+
060706 E12  0.2-  0.5+    060911 H98  0.1-  0.3-    061016 145  0.2-  0.2-
060706 E12  0.2-  0.5-    060911 H98  0.0   0.2-    061016 145  0.2-  0.2-
060706 E12  0.6-  0.3-    060911 H98  0.3-  0.1-    061016 A27  0.1-  0.0
060706 844  0.1-  0.1+    060911 H98  0.4-  0.1-    061016 145  0.2-  0.1-
060706 844  0.1+  0.9+    060911 G63  0.2+  0.7+    061016 639  0.1+  0.0
060706 844  0.1+  0.2-    060911 G63  0.2-  1.1+    061016 145  0.5+  0.4-
060707 423  0.2-  0.1-    060911 G63  0.6-  0.1-    061016 639  0.2+  0.3+
060707 423  0.0   0.0     060911 G63  0.2-  0.1+    061016 145  0.2-  0.0
060709 844  0.2+  0.8-    060911 G63  0.4-  0.3+    061016 639  0.6+  0.1+
060709 844  0.4+  1.4-    060911 G63  0.3-  0.1+    061017 704  0.1-  0.8-
060709 844  0.0   0.9-    060911 G63  1.1-  1.3-    061017 704  0.5-  0.5-
060709 844  0.4+  1.4-    060911 G63  0.2+  0.3-    061017 704  0.5-  0.2+
060709 844  0.1-  1.1-    060911 113  0.1+  0.2-    061017 704  0.1-  0.7-
060712 E12  0.3-  0.0     060911 113  0.0   0.2-    061017 704  0.7+  0.5+
060712 E12  0.2-  0.1+    060911 113  0.1+  0.2-    061017 379  0.2+  0.0
060712 E12  0.0   0.1+    060911 113  0.0   0.3-    061017 379  0.4+  0.2-
060712 E12  0.1-  0.1+    060911 127  0.3-  0.1-    061017 379  0.1-  0.1+
060712 E12  0.2-  0.2+    060911 127  0.0   0.2+    061017 379  0.1-  0.0
060712 E12  0.1-  0.1+    060911 127  0.2-  0.1+    061017 379  0.1+  0.3+
060712 E12  0.0   0.2-    060911 127  0.3-  0.1+    061017 379  0.2+  0.4+
060717 808  0.4-  1.2-    060911 127  0.4-  0.2+    061017 A24  0.4+  0.2+
060718 808  0.1-  0.3-    060911 084  0.3-  0.4-    061017 A27  0.0   0.8-
060718 808  0.0   0.6-    060911 084  0.4+  0.0     061017 A24  0.0   0.1+
060718 B04  0.1-  0.1+    060912 113  0.0   0.2-    061017 434  0.6-  0.6+
060718 B04  0.4+  0.4+    060912 113  0.1+  0.2-    061017 434  0.1-  0.4+
060718 B04  0.3-  0.4-    060912 084  0.2+  0.2-    061017 A27  0.1-  0.1+
060718 B04  0.5+  0.0     060912 084  0.6-  0.4-    061017 434  0.4-  0.1+
060718 B04  0.6+  0.6+    060912 127  0.2+  0.2+    061017 434  0.1-  0.0
060718 B04  0.3-  0.5-    060912 127  0.3+  0.3+    061017 A27  0.5-  0.2+
060718 B04  0.2-  0.3-    060912 127  0.0   0.2+    061017 A27  0.1+  0.1-
060720 170  0.2-  0.1+    060912 127  0.3+  0.1+    061017 A27  0.2-  0.2-
060720 170  0.1-  0.0     060912 127  0.2+  0.1+    061017 A27  0.1+  0.0
060720 170  0.1-  0.1-    060912 A53  0.1+  0.5+    061017 A27  0.1+  0.1-
060724 151  0.0   0.1+    060912 A53  0.4+  0.5+    061017 A53  0.6+  0.4+
060724 151  0.3+  0.2+    060912 A53  0.2+  0.1+    061017 A53  0.0   0.1-
060724 151  0.6+  0.0     060912 A53  0.3+  0.2+    061017 A24  0.0   0.0
060724 151  0.2+  0.5-    060912 510  0.5-  0.0     061017 A53  0.0   0.2-
060724 151  0.0   0.4-    060912 510  0.2-  0.5+    061017 A53  0.6+  0.2+
060724 151  0.1-  0.3-    060912 510  0.6-  0.5+    061017 A53  0.2-  0.7+
060725 E12  0.0   0.0     060912 A53  0.3-  0.2+    061017 A24  0.1-  0.2+
060725 E12  0.0   0.1+    060913 G63  0.2+  0.3+    061017 A24  0.1+  0.4+
060725 E12  0.1-  0.1+    060913 G63  0.2-  0.2-    061018 379  0.1-  0.1+
060725 379  1.3-  0.5-    060913 G63  0.1+  0.0     061018 379  0.0   0.4-
060725 379  1.0-  0.5-    060913 G63  0.3-  0.5-    061018 379  0.3-  0.1-
060725 379  0.7-  0.5-    060913 G63  0.2-  0.1-    061018 379  0.2-  0.1+
060725 379  0.5-  0.8-    060913 G63  0.3-  0.5-    061018 379  0.1-  0.2+
060726 379  0.3+  0.2-    060913 G63  0.1+  0.0     061018 379  0.4-  0.2+
060726 379  1.0+  0.5-    060913 G63  0.4-  0.1-    061018 379  0.0   0.3-
060726 170  0.3-  0.1+    060913 G63  0.5+  0.1+    061018 379  0.1+  0.4-
060726 170  0.3-  0.1-    060913 G63  0.3-  0.6-    061018 379  0.1-  0.2+
060726 170  0.1-  0.1+    060913 084  0.8-  0.1-    061018 379  0.4-  0.0
060726 170  0.1-  0.1+    060913 084  0.2-  0.0     061021 H45  0.3-  0.4-
060727 379  0.2+  0.0     060913 127  0.0   0.2+    061021 H45  0.2-  0.4-
060727 379  0.1+  0.3+    060913 127  0.0   0.0     061021 H45  0.2-  0.1-
060727 379  0.1-  0.3+    060913 127  0.1+  0.1+    061021 H45  0.2-  0.2-
060727 379  0.2+  0.2+    060913 127  0.2+  0.1-    061021 H45  0.1-  0.2-
060727 379  0.3-  0.0     060913 127  0.2+  0.2+    061021 H45  0.1-  0.3-
060727 379  0.4-  0.0     060914 113  0.0   0.2-    061021 H45  0.0   0.4-
060727 379  0.0   0.2+    060914 113  0.1+  0.1-    061024 H45  0.1-  0.2-
060727 379  0.0   0.1+    060914 113  0.1+  0.1-    061024 H45  0.1-  0.1-
060727 379  0.2-  0.2-    060914 113  0.1+  0.1-    061024 H45  0.2-  0.1-
060729 J87  0.0   0.1-    060914 113  0.1+  0.3-    061024 H45  0.1-  0.2-
060729 J87  0.1-  0.1-    060915 H68  0.7+  0.2+    061024 H45  0.1-  0.3-
060729 J87  0.0   0.2-    060915 H68  0.7+  0.2+    061024 H45  0.1-  0.2-
060805 E12  0.1-  0.1-    060915 H68  1.1+  1.3+    061024 151  0.2-  0.1+
060805 E12  0.2-  0.0     060915 H68  0.9+  0.9+    061024 151  0.1-  0.1+
060805 E12  0.2-  0.3+    060915 H68  1.3+  1.2+    061024 151  0.0   0.1+
060806 D35  1.6+  2.1+    060915 084  0.4-  0.2-    061024 151  0.1-  0.0
060806 D35  1.7+  2.1+    060915 084  0.0   0.1-    061024 151  0.0   0.0
060806 D35  1.9+  2.1+    060915 585 (3.5-  1.7-)   061024 151  0.1-  0.0
060807 379  0.5-  0.1+    060915 585  1.3-  0.7-    061024 071  1.6-  0.3+
060807 379  0.7-  0.0     060915 585  0.1+  0.2-    061024 071  0.1-  0.1+
060807 379  0.6-  0.5-    060915 585  0.1+  0.2+    061024 071  1.9+  0.1-
060807 379  0.4-  0.5-    060915 J94  0.2-  0.8-    061024 A24  0.5+  0.3+
060807 379  0.5-  0.7-    060915 585  2.2-  1.1-    061024 A53  0.1-  0.2+
060807 379  0.2-  0.1-    060915 585  0.3+  0.2+    061024 A24  0.5+  0.0
060807 379  0.6-  0.5-    060915 585  0.4+  0.2+    061024 A53  0.3+  0.1-
060807 E12  0.2+  0.2-    060915 J94  0.3+  0.0     061024 A53  0.4-  0.1-
060807 E12  0.1+  0.3+    060915 J94  0.2-  0.2+    061024 A53  0.4+  0.6+
060807 E12  0.1-  0.1+    060916 084  0.2-  0.3-    061024 A24  0.3-  0.1+
060807 E12  0.0   0.3-    060916 084  0.2-  0.2-    061025 379  0.3+  0.3+
060808 E12  0.0   0.2+    060916 071  0.3+  0.1-    061025 379  0.3+  0.2+
060808 E12  0.2-  0.0     060916 071  0.1+  0.1-    061025 379  0.1-  0.5+
060808 E12  0.2+  0.5+    060916 071  0.2-  0.4-    061025 379  0.1+  0.4-
060808 E12  0.1-  0.1-    060917 084  0.1-  0.2-    061025 A24  0.0   0.2+
060810 A48  1.0+  0.9+    060917 084  0.3-  0.3-    061025 A24  0.2+  0.1-
060810 A48  0.8+  0.8+    060917 113  0.0   0.3-    061025 B09  0.3+  0.9+
060810 A48  0.7+  0.8+    060917 113  0.0   0.3-    061025 B09  1.1+  0.1-
060810 A48  0.7+  0.8+    060917 113  0.1+  0.2-    061025 B09  1.1+  0.0
060811 H68  0.3+  1.3-    060917 113  0.0   0.2-    061026 240  0.0   0.0
060811 H68  2.3+  0.3-    060917 113  0.1+  0.2-    061026 240  0.1+  0.2-
060811 H68  2.7+  0.6+    060918 084  0.7-  0.6-    061026 240  0.1+  0.0
060812 084  0.8-  0.2-    060918 084  0.3+  0.0     061026 151  0.3-  0.2+
060814 H68  0.9+  1.2+    060919 704  0.8-  0.2+    061026 151  0.2-  0.2+
060814 H68  0.8+  0.8+    060919 704  1.7-  0.3-    061026 151  0.2-  0.1+
060814 H68  0.0   1.2+    060919 704  0.5-  0.3+    061026 240  0.2+  0.0
060815 300  0.3-  2.6+    060919 H45  0.1-  0.1-    061026 151  0.1-  0.1+
060815 300  0.5-  2.5+    060919 H45  0.0   0.1-    061026 151  0.0   0.1+
060815 300  0.3+  1.9+    060919 704  2.0-  0.6+    061026 240  0.2+  0.0
060815 300  0.4-  1.5+    060919 H45  0.1-  0.2-    061026 151  0.0   0.1+
060815 300  0.3-  2.2+    060919 H45  0.1-  0.2-    061026 151  0.1+  0.1+
060815 300  0.8-  1.5+    060919 H45  0.0   0.1-    061026 A24  0.5+  0.2+
060815 300  0.0   1.9+    060919 H45  0.0   0.1-    061026 A53  0.0   0.2+
060815 300  0.4+  1.7+    060919 704  2.0-  0.1+    061026 A53  0.3-  0.3+
060815 300  0.1-  2.7+    060919 379  0.2-  0.2-    061026 A53  0.1-  0.8+
060815 300  0.3-  1.9+    060919 379  0.2-  0.2-    061026 A24  0.1-  0.2+
060815 300  0.6+  1.0+    060919 379  0.0   0.4-    061026 A24  0.6-  0.4+
060815 300  0.3-  1.2+    060919 379  0.1-  0.1-    061027 160  0.1-  0.2+
060817 H67  0.3+  0.1+    060919 379  0.1-  0.1+    061027 160  0.1-  0.2+
060817 H67  1.1+  0.2+    060919 379  0.4-  0.3-    061027 160  0.2-  0.2+
060817 H67  0.1+  0.1+    060920 379  0.3-  0.0     061027 160  0.0   0.3+
060817 461  0.1+  0.2+    060920 300  0.7-  0.8+    061027 160  0.0   0.3+
060817 461  0.1-  0.2+    060920 379  0.0   0.1-    061027 160  0.1-  0.3+
060817 461  0.0   0.2+    060920 379  0.1+  0.2-    061029 726  0.3-  0.3+
060817 461  0.1+  0.2+    060920 300  0.5+  0.4+    061029 726  0.2+  0.5+
060818 084  0.3-  0.8-    060920 379  0.2-  0.1-    061029 726  0.4-  0.3-
060818 084  0.7-  0.6-    060920 379  0.2-  0.2-    061029 726  0.2-  0.1+
060818 232  0.1-  0.1-    060920 379  0.0   0.4-    061029 726  0.0   0.3+
060818 232  0.0   0.1-    060920 300  0.4-  0.1-    061029 726  0.4+  0.6-
060818 232  0.1-  0.2-    060920 300  0.2-  0.7+    061029 300  0.1-  0.1+
060819 379  0.4-  0.0     060920 379  0.1+  0.2-    061029 300  0.2+  0.1-
060819 379  0.2-  0.3-    060920 300  1.1-  0.1-    061029 300  0.0   0.2+
060819 379  0.1-  0.2-    060920 151  0.9-  0.2+    061029 300  0.2-  0.2-
060819 379  0.5-  0.3-    060920 151  0.5-  0.2+    061029 A48  0.2+  0.1-
060819 379  0.1-  0.0     060920 151  0.1-  0.1+    061029 A48  0.6+  0.3+
060819 379  0.1+  0.1-    060920 113  0.2-  0.2-    061029 A48  0.2-  0.1-
060819 379  0.1-  0.0     060920 151  0.0   0.4+    061029 A48  0.8+  0.1+
060819 379  0.2+  0.1-    060920 113  0.1+  0.2-    061029 084  0.0   0.1-
060819 198  0.2-  0.1+    060920 151  0.1-  0.3+    061029 084  0.0   0.0
060819 198  0.0   0.0     060920 151  0.1-  0.3+    061030 726  0.3-  0.0
060819 198  0.0   0.1+    060920 113  0.0   0.2-    061030 726  0.1-  0.8+
060819 198  0.2-  0.1-    060920 113  0.1+  0.1-    061030 726  0.3-  0.2-
060819 084  0.2+  0.0     060920 113  0.0   0.1-    061030 726  0.6-  0.6+
060819 084  0.5-  0.5-    060921 379  0.1-  0.1+    061030 726  0.3-  0.5+
060821 130  0.0   0.0     060921 379  0.1+  0.3-    061030 726  0.0   0.5-
060821 130  0.1-  0.2-    060921 379  0.4-  0.2-    061030 151  0.1-  0.1+
060821 130  0.2-  0.0     060921 379  0.0   0.1+    061030 151  0.2-  0.1+
060821 130  0.2-  0.2-    060921 379  0.3-  0.2-    061030 151  0.2-  0.2+
060821 A81  0.1+  0.3-    060921 379  0.0   0.3-    061030 151  0.1-  0.1+
060821 A81  0.7+  0.4-    060921 379  0.2-  0.1-    061030 151  0.1+  0.1+
060821 A81  0.5+  0.2+    060921 379  0.3-  0.2-    061030 151  0.0   0.1+
060822 A53  0.2-  0.1+    060921 379  0.3-  0.1-    061030 151  0.1-  0.0
060822 A53  0.1-  0.3-    060921 113  0.1+  0.2-    061101 703  0.1+  0.0
060822 A53  0.1+  0.1+    060921 113  0.1+  0.3-    061101 703  0.0   0.2-
060822 A53  0.3+  0.3-    060921 113  0.3+  0.1-    061101 703  0.2-  0.1-
060822 204  0.2-  0.2-    060921 151  0.1+  0.1-    061101 703  0.1-  0.0
060822 204  0.2-  0.3-    060921 113  0.0   0.1-    061101 A53  0.7-  0.3+
060822 204  0.1-  0.3-    060921 113  0.0   0.3-    061101 A53  0.1+  0.5+
060823 639  0.2-  0.1-    060921 151  0.2-  0.0     061101 A53  0.1+  0.3+
060823 639  0.0   0.0     060921 151  0.1-  0.2+    061102 A56  0.6+  1.5+
060823 639  0.1-  0.0     060921 151  0.0   0.1+    061102 A56  0.0   0.9+
060823 639  0.0   0.0     060921 151  0.3+  0.1-    061102 A56  0.0   0.7+
060823 639  0.0   0.1+    060921 510  0.8-  0.3+    061102 A56  0.0   0.4+
060824 379  0.0   0.8-    060921 510  0.5-  0.2+    061102 A56  0.6+  0.3+
060824 379  0.2+  0.8-    060921 510  0.0   0.6-    061103 A24  0.2+  0.2+
060824 379  0.5+  0.6-    060921 B12  0.1+  0.0     061103 A24  0.1-  0.1+
060824 379  0.5-  0.2+    060921 B12  0.6+  0.1+    061103 A24  0.2-  0.0
060824 379  0.3+  0.1+    060921 B12  1.0+  0.2+    061103 A24  0.1-  0.7+
060824 379  0.3+  0.2+    060922 A89  0.0   0.4-    061103 A24  0.3-  0.5+
060824 379  0.3+  0.7-    060922 A89  0.1+  0.5-    061103 A24  0.5+  0.1-
060824 379  0.1+  0.6-    060922 084  0.2-  0.2-    061104 084  0.3-  0.1-
060824 084  0.1+  0.0     060922 084  0.0   0.1-    061104 084  0.1+  0.5-
060824 084  0.5-  0.4-    060922 A89  0.1-  0.4-    061107 355  0.2+  0.4+
060825 G63  0.3+  0.1+    060922 A89  0.2+  0.4-    061107 355  0.6-  0.6-
060825 G63  0.2+  0.3+    060923 A48  0.8+  0.4+    061107 355  0.3-  0.3+
060825 G63  0.3+  0.1-    060923 A48  0.7+  0.2+    061107 355  0.1-  0.4+
060825 G63  0.5-  0.3-    060923 A48  0.9+  0.6+    061108 113  0.1+  0.2-
060825 G63  0.2-  0.4-    060923 A48  0.7+  0.5+    061108 113  0.1+  0.2-
060825 G63  0.1-  0.0     060923 A53  0.1-  0.0     061108 113  0.1+  0.1-
060825 G63  0.9-  1.3-    060923 A53  0.2+  0.2-    061108 113  0.1-  0.1-
060825 G63  0.3+  0.5-    060923 A27  0.0   0.5+    061108 113  0.3+  0.2-
060826 473  0.4+  0.1-    060923 A53  0.1-  0.0     061108 A24  0.2-  0.3+
060827 G63  0.2+  0.4+    060923 A27  0.6-  0.7-    061108 A24  0.2-  0.2+
060827 G63  0.4-  0.2-    060923 A53  0.0   0.0     061108 A24  0.2-  0.1+
060827 G63  0.3-  0.1-    060923 A27  0.6-  0.4-    061109 355  0.5+  0.5+
060827 G63  0.3-  0.1-    060923 A27  0.2-  0.4-    061109 355  0.5+  0.8+
060827 G63  0.0   0.2-    060923 A27  1.1-  0.3+    061109 355  0.2+  0.4+
060827 G63  0.0   0.2-    060923 560  0.0   0.2+    061109 355  0.4+  0.0
060827 G63  0.5-  0.1-    060923 560  0.2+  0.2+    061109 240  0.3+  0.1+
060827 G63  0.6-  0.3+    060923 560  0.3+  0.2+    061109 240  0.3+  0.2+
060827 G63  0.4+  0.3+    060924 H68  1.0+  0.9+    061109 240  0.2+  0.0
060827 G63  0.1+  0.3+    060924 H68  1.5+  0.0     061109 240  0.2+  0.1+
060829 084  0.2-  0.9-    060924 H68  0.7+  0.5+    061109 240  0.1+  0.1+
060829 J68  0.1-  0.0     060924 H68  1.3+  1.2+    061109 240  0.1+  0.1+
060829 J68  0.1-  0.0     060924 A27  0.2-  0.0     061109 A24  0.3+  0.4+
060829 J68  0.1-  0.0     060924 A27  0.0   0.1+    061109 A24  0.2-  0.3+
060830 240  0.1+  0.0     060924 A27  0.0   0.2-    061109 A24  0.4-  0.5+
060830 240  0.0   0.0     060924 A27  0.2-  0.2-    061113 A24  0.1+  0.3+
060830 240  0.3+  0.3-    060924 A27  0.1+  0.2-    061113 434  0.3+  0.8+
060830 240  0.3+  0.2-    060925 H51 (3.7+  0.3+)   061113 434  0.3-  0.1+
060830 240  0.1+  0.3-    060925 H51  0.9-  0.0     061113 434  0.1+  0.3+
060830 240  0.0   0.0     060925 H51  0.9+  0.4+    061113 434  0.2-  0.3-
060830 240  0.0   0.0     060927 379  0.3-  0.1-    061113 434  0.3+  0.6-
060830 240  0.0   0.1+    060927 379  0.3+  0.4+    061113 A24  0.1-  0.2+
060830 240  0.1+  0.0     060927 379  0.0   0.4-    061113 A24  0.2-  0.3+
060830 240  0.1+  0.0     060927 379  0.0   0.2-    061115 726  1.6-  1.7-
060830 240  0.1+  0.2+    060927 379  0.4+  0.3-    061115 726  0.1-  0.1+
060830 560  0.3+  0.1+    060927 379  0.0   0.3-    061115 726  0.2+  0.4-
060830 560  0.5+  0.3+    060927 084  0.1+  0.3-    061115 704  0.3+  0.0
060830 560  0.4+  0.1+    060927 084  0.0   0.6-    061115 704  1.0+  0.2+
060830 160  0.1+  0.1-    060928 A53  0.2+  0.1+    061115 704  0.5+  0.4+
060830 160  0.1-  0.2-    060928 A53  0.6+  0.5+    061115 704  0.2-  0.0
060830 160  0.0   0.1-    060928 A53  0.1+  0.4+    061115 113  0.1+  0.0
060830 160  0.0   0.0     060928 240  0.2+  0.1-    061115 113  0.0   0.0
060830 160  0.1+  0.1-    060928 084  0.5-  0.1-    061115 113  0.2+  0.2-
060830 160  0.1-  0.1+    060928 240  0.2+  0.1-    061115 113  0.0   0.1+
060831 379  0.0   0.0     060928 A53  0.1+  0.1-    061115 113  0.0   0.1+
060831 379  0.2+  0.9-    060928 240  0.0   0.2-    061116 726  0.4+  0.2+
060831 379  0.1+  0.6-    060928 084  0.1-  0.1-    061116 726  0.3+  0.7+
060831 379  0.2-  0.8-    060928 240  0.1+  0.2-    061116 726  0.1-  0.4-
060901 704  0.2-  0.0     060928 240  0.4+  0.1-    061116 726  0.2+  0.7+
060901 704  0.3+  0.1+    060928 240  0.4+  0.1-    061116 726  0.2+  0.1+
060901 704  0.2+  0.1+    060928 A53  0.1-  0.4+    061116 726  0.0   0.6+
060901 379  0.1-  0.1-    060928 240  0.1-  0.1-    061116 113  0.2-  0.1-
060901 379  0.1-  0.2-    060928 240  0.0   0.2-    061116 113  0.1+  0.1-
060901 379  0.3-  0.3-    060928 240  0.2+  0.2-    061116 113  0.3-  0.1+
060901 379  0.1-  0.3-    060928 240  0.1-  0.2-    061116 113  0.2-  0.0
060901 379  0.2-  0.2-    061003 704  0.3+  0.8-    061116 113  0.2-  0.2+
060901 379  0.0   0.0     061003 704  1.5+  1.3+    061119 726  1.2-  1.4-
060901 379  0.2+  0.1-    061003 704  0.2-  0.4+    061119 726  0.1+  0.7+
060901 379  0.3-  0.1-    061003 704  0.1-  0.4+    061119 726  0.1+  0.4+
060901 379  0.2-  0.3-    061004 198  0.1-  0.3+    061119 726  0.5-  0.4+
060901 379  0.1+  0.1+    061004 198  0.0   0.3+    061120 726  0.1-  1.0+
060901 379  0.3+  0.1-    061004 198  0.0   0.3+    061120 726  0.3-  0.3+
060901 379  0.1+  0.2+    061004 198  0.0   0.2+    061120 726  0.2+  0.2-
060901 379  0.0   0.1+    061004 198  0.1+  0.1+    061120 726  0.2+  0.2-
060901 379  0.3-  0.1+    061005 560  0.1+  0.2+    061120 726  0.4+  0.1+
060901 379  0.4-  0.4-    061005 560  0.2+  0.3+    061122 726  0.5+  0.2+
060901 379  0.3-  0.2-    061005 560  0.0   0.3+    061122 726  0.6-  0.3+
060901 379  0.3+  0.1+    061005 A53  0.3-  0.4+    061122 726  0.7+  0.7+
060901 379  0.2-  0.3-    061005 A53  0.1+  0.1-    061122 726  0.0   2.5-
060901 160  0.2-  0.3-    061005 A53  0.2+  0.1+    061122 726  0.6-  0.4-
060901 160  0.2-  0.1-    061005 A53  0.2-  0.7+    061122 726  0.0   0.8+
060901 160  0.1-  0.2-    061005 203  0.1-  0.1-    061122 703  0.4-  0.1-
060901 160  0.1-  0.1-    061005 203  0.1-  0.3-    061122 703  0.2-  0.1+
060901 160  0.2-  0.1+    061006 A48  0.5+  0.1+    061122 703  0.3-  0.1+
060901 160  0.2-  0.1-    061006 A48  0.7+  0.3+    061122 703  0.1-  0.1+
060901 J87  0.1-  0.3-    061006 A48  0.9+  0.2+    061127 113  0.3+  0.0
060901 J87  0.2-  0.2-    061006 A48  0.4+  0.0     061127 113  0.4-  0.0
060901 J87  0.1-  0.3-    061006 160  0.4-  0.0     061127 113  0.2+  0.1-
060902 379  0.1-  0.1-    061006 160  0.1-  0.2+    061127 113  0.0   0.0
060902 379  0.2-  0.4-    061006 160  0.0   0.1+    061127 113  0.3+  0.3-
060902 379  0.1-  0.3-    061006 160  0.1-  0.2+    061129 704  0.2-  0.1+
060902 379  0.1-  0.2-    061006 160  0.1-  0.1+    061129 704  1.2+  1.4-
060902 379  0.1-  0.1-    061006 084  0.9-  0.0     061129 704  0.2-  0.6-
060902 379  0.1-  0.2-    061006 084  0.2+  0.0     061129 704  0.8+  0.3-
060902 379  0.0   0.1+    061007 204  0.3-  0.2-    061129 704  0.1+  0.2+
060902 379  0.1-  0.1+    061007 204  0.2-  0.1-    061129 704  0.7-  0.5-
060902 379  0.3+  0.1-    061007 204  0.2-  0.2-    061129 704  0.2+  1.1+
060902 379  0.2+  0.2-    061008 113  0.0   0.1-    061129 704  1.3-  1.3-
060902 379  0.3+  0.3-    061008 113  0.1-  0.2-    061129 704  0.4+  0.4+
060902 084  0.1+  0.3+    061008 113  0.1-  0.3-    061129 704  0.4-  0.7-
060902 084  0.2-  0.4-    061008 113  0.1+  0.2-    061201 113  0.1+  0.3-
060902 J87  0.0   0.3-    061008 113  0.1-  0.2-    061201 113  0.4+  0.5-
060902 J87  0.0   0.3-    061008 A53  0.0   0.3+    061201 113  0.2-  0.4-
060902 J87  0.1-  0.2-    061008 A53  0.2-  0.0     061201 113  0.3+  0.7-
060903 084  0.1-  0.3-    061008 A53  0.1+  0.1+    061201 113  0.4+  0.3-
060904 379  0.5-  0.4-    061008 A53  0.1+  0.2+    061212 113  0.0   0.1-
060904 379  0.3-  0.1+    061008 639  0.1+  0.0     061212 113  0.1-  0.0
060904 379  0.4-  0.7-    061008 639  0.0   0.2+    061212 113  0.2-  0.1+
060904 379  0.1-  0.1+    061008 639  0.0   0.0     061212 113  0.0   0.1+
060904 084  0.2+  0.1-    061008 639  0.1-  0.1+    061212 113  0.0   0.1+
060904 240  0.2+  0.1-    061008 560  0.0   0.3+    061212 113  0.0   0.1+
060904 240  0.2+  0.1-    061008 560  0.1+  0.1+    061212 113  0.1+  0.1-
060904 240  0.1+  0.2-    061008 560  0.2+  0.2+    061213 240  0.4+  0.3+
060904 240  0.2+  0.1-    061008 A48  0.6+  0.2+    061213 240  0.5+  0.3+
060904 240  0.2+  0.1-    061008 A48  0.6+  0.2+    061213 240  0.6+  0.1+
060904 240  0.2+  0.1-    061008 A48  0.6+  0.1+    061213 240  0.3+  0.1-
060904 240  0.3+  0.1-    061008 A48  0.5+  0.0     061213 240  0.5+  0.5-
060904 240  0.2+  0.0     061009 H67  0.1+  0.0     061213 A53  0.7-  0.1+
060904 240  0.0   0.0     061009 H67  0.5-  0.1-    061213 A53  0.1-  0.1+
060904 240  0.1+  0.2-    061009 H67  0.1+  0.0     061213 A53  0.4-  0.0
060904 240  0.3+  0.0     061009 379  0.2-  0.2+    061214 A94  0.2-  0.4+
060904 240  0.3+  0.0     061009 379  0.0   0.0     061214 A94  1.1-  0.1+
060904 203  0.1-  0.1-    061009 379  0.0   0.1+    061214 A94  1.1-  0.4+
060904 473  0.0   0.1-    061009 379  0.0   0.0     061215 113  0.4+  0.0
060904 203  0.2-  0.1-    061009 379  0.1+  0.1-    061215 113  0.3+  0.1+
060905 379  0.2-  0.3-    061009 379  0.2+  0.1+    061215 113  0.2+  0.3+
060905 379  0.1-  0.0     061009 379  0.2+  0.3+    061215 113  0.2+  0.3+
060905 379  0.2-  0.2-    061009 379  0.2-  0.2-    061215 113  0.2+  0.4+
060905 379  0.5-  0.1+    061009 379  0.1-  0.1+    061216 704  0.9+  1.1+
060905 379  0.1-  0.2-    061009 379  0.2-  0.1-    061216 704  0.2-  1.0+
060905 473  0.5+  0.0     061009 379  0.0   0.1+    061216 704  0.9-  0.2-
060906 H45  0.0   0.0     061009 379  0.1+  0.0     061216 704  0.2+  0.3+
060906 H45  0.1-  0.1-    061009 379  0.2-  0.1-    061223 H45  0.1-  0.3+
060906 H45  1.0-  0.1-    061009 379  0.0   0.0     061223 H45  0.1+  0.1+
060906 H45  0.5-  0.0     061009 379  0.2-  0.1-    061223 H45  0.1+  0.4+
060906 H45  0.0   0.1-    061009 379  0.0   0.0     061223 H45  0.1-  0.5+
060906 H45  0.2-  0.0     061009 113  0.1+  0.2-    061223 H45  0.0   0.1+
060906 H45  0.1-  0.1-    061009 113  0.1-  0.1-    070103 H55  0.6+  0.4+
060906 639  0.2+  0.2+    061009 113  0.0   0.2-    070103 H55  0.2+  0.6+
060906 639  0.1+  0.2+    061009 113  0.1+  0.2-    070103 H55  0.2-  0.4+
060906 639  0.1+  0.2+    061009 113  0.1+  0.1-    070103 H55  0.0   0.3-
060906 639  0.0   0.0     061009 113  0.1-  0.1-    070103 H55  0.2+  0.1-
060906 639  0.1-  0.1+    061009 A53  0.1+  0.2+    070103 H55  0.2-  0.1+
060907 J94  0.5-  0.1-    061009 A53  0.1+  0.3+    070108 H45  0.0   0.1+
060907 J65  1.2-  0.7+    061009 A53  0.1+  0.1+    070108 H45  0.1+  0.4-
060907 J65  0.6+  0.8+    061009 A53  0.4+  0.2+    070108 H45  0.2+  0.0
060907 J65  0.2-  0.5+    061009 A53  0.0   0.2+    070108 H45  0.2+  0.3-
060907 J65  0.4+  0.5+    061009 203  0.1-  0.1+    070108 H45  0.1-  0.1-
060907 J94  0.1-  0.4-    061009 203  0.0   0.2-    070110 704  0.9-  0.3-
060907 J94  0.1+  0.2-    061010 379  0.3-  0.2-    070110 704  0.3-  0.3-
060907 J65  0.5-  0.8+    061010 379  0.1-  0.3-    070110 704  0.2+  0.5+
060907 J65  0.6-  0.7+    061010 379  0.4-  0.0     070117 703  0.2+  0.6-
060907 J65  0.2+  0.8-    061010 379  0.3-  0.0     070117 703  0.2+  0.0
060907 J68  0.2+  0.1+    061010 379  0.1-  0.2+    070117 703  0.0   0.8+
060907 J68  0.4-  0.1-    061010 379  0.3-  0.4+    070117 703  1.2+  0.0
060907 J65  0.4-  0.2+    061010 379  0.2-  0.1-    070315 G96  0.0   0.5+
060907 J65  1.1+  0.1-    061010 379  0.2-  0.2-    070315 G96  0.3-  0.0
060907 J65  1.0+  0.4-    061011 113  0.2+  0.2-    070315 G96  0.0   0.3+
060907 J68  0.6-  0.2-    061011 113  0.1-  0.1-    070315 G96  0.3-  0.1+
060908 046  0.4+  0.0     061011 113  0.2+  0.2-    071206 H55  0.2-  0.1+
060908 046  0.3+  0.0     061011 A53  0.1+  0.6+    071206 H55  0.3-  0.1-
060908 046  0.1-  0.0     061011 A53  0.3+  0.4+    071206 H55  0.7+  0.3-
060908 046  0.3+  0.0     061011 A53  0.3+  0.4+    071214 H55  0.1+  0.2-
060908 046  0.3+  0.1-    061011 A53  0.2+  0.0     071214 H55  0.0   0.3+
060908 046  0.3+  0.0     061011 A48  0.6+  0.4+    071214 H55  0.2-  0.5+
060908 J68  0.6+  0.3+    061011 A48  0.7+  0.2+

